TimeEDT,TemperatureF,Dew PointF,Humidity,Sea Level PressureIn,VisibilityMPH,Wind Direction,Wind SpeedMPH,Gust SpeedMPH,PrecipitationIn,Events,Conditions,WindDirDegrees,DateUTC
12:15 AM,67.6,65.8,94,30.02,10.0,Calm,Calm,-,N/A,,Overcast,0,2013-08-23 04:15:00
12:35 AM,67.3,65.7,95,30.03,7.0,Calm,Calm,-,N/A,,Mostly Cloudy,0,2013-08-23 04:35:00
12:55 AM,68.2,66.4,94,30.03,10.0,Calm,Calm,-,N/A,,Mostly Cloudy,0,2013-08-23 04:55:00
1:15 AM,67.5,66.0,95,30.03,7.0,Calm,Calm,-,N/A,,Overcast,0,2013-08-23 05:15:00
1:35 AM,68.0,66.0,93,30.02,10.0,North,3.5,-,N/A,,Mostly Cloudy,10,2013-08-23 05:35:00
1:55 AM,66.4,64.2,93,30.02,5.0,Calm,Calm,-,N/A,,Scattered Clouds,0,2013-08-23 05:55:00
2:15 AM,64.8,63.7,96,30.02,7.0,Calm,Calm,-,N/A,,Clear,0,2013-08-23 06:15:00
2:35 AM,65.5,63.5,93,30.02,10.0,Calm,Calm,-,N/A,,Clear,0,2013-08-23 06:35:00
2:55 AM,65.8,63.7,93,30.02,10.0,Calm,Calm,-,N/A,,Scattered Clouds,0,2013-08-23 06:55:00
3:15 AM,66.6,64.6,93,30.01,7.0,Calm,Calm,-,N/A,,Clear,0,2013-08-23 07:15:00
3:35 AM,66.0,64.4,94,30.01,7.0,NNW,3.5,-,N/A,,Clear,340,2013-08-23 07:35:00
3:55 AM,65.5,64.2,96,30.01,5.0,Calm,Calm,-,N/A,,Clear,0,2013-08-23 07:55:00
4:15 AM,65.3,64.0,96,30.01,5.0,Calm,Calm,-,N/A,,Clear,0,2013-08-23 08:15:00
4:35 AM,65.3,64.0,96,30.01,7.0,Calm,Calm,-,N/A,,Clear,0,2013-08-23 08:35:00
4:55 AM,64.4,63.1,96,30.01,4.0,Calm,Calm,-,N/A,,Clear,0,2013-08-23 08:55:00
5:15 AM,64.4,63.5,97,30.02,3.0,Calm,Calm,-,N/A,,Clear,0,2013-08-23 09:15:00
5:35 AM,65.3,64.4,97,30.02,7.0,Calm,Calm,-,N/A,,Clear,0,2013-08-23 09:35:00
5:53 AM,64.4,62.6,94,30.02,4.0,Calm,Calm,-,N/A,,Clear,0,2013-08-23 09:53:00
6:53 AM,64.4,62.6,94,30.05,5.0,Calm,Calm,-,N/A,,Clear,0,2013-08-23 10:53:00
7:53 AM,64.4,64.4,100,30.08,6.0,Calm,Calm,-,N/A,,Scattered Clouds,0,2013-08-23 11:53:00
8:53 AM,66.2,64.4,94,30.09,6.0,Calm,Calm,-,N/A,,Overcast,0,2013-08-23 12:53:00
9:53 AM,68.0,64.4,88,30.10,7.0,Variable,3.5,-,N/A,,Scattered Clouds,0,2013-08-23 13:53:00
10:53 AM,66.2,62.6,88,30.11,7.0,WSW,5.8,-,N/A,,Mostly Cloudy,240,2013-08-23 14:53:00
11:53 AM,68.0,64.4,88,30.12,10.0,WSW,5.8,-,N/A,,Mostly Cloudy,240,2013-08-23 15:53:00
12:53 PM,71.6,60.8,69,30.12,10.0,WSW,5.8,-,N/A,,Scattered Clouds,240,2013-08-23 16:53:00
1:53 PM,75.2,53.6,47,30.12,10.0,WSW,5.8,-,N/A,,Scattered Clouds,240,2013-08-23 17:53:00
2:53 PM,77.0,53.6,44,30.09,10.0,Variable,4.6,-,N/A,,Scattered Clouds,0,2013-08-23 18:53:00
3:53 PM,78.8,51.8,39,30.08,10.0,Calm,Calm,-,N/A,,Mostly Cloudy,0,2013-08-23 19:53:00
4:53 PM,75.2,55.4,50,30.08,10.0,Variable,4.6,-,N/A,,Mostly Cloudy,0,2013-08-23 20:53:00
5:53 PM,75.2,57.2,53,30.07,10.0,Calm,Calm,-,N/A,,Scattered Clouds,0,2013-08-23 21:53:00
6:53 PM,77.0,57.2,50,30.08,10.0,Calm,Calm,-,N/A,,Scattered Clouds,0,2013-08-23 22:53:00
7:58 PM,71.6,60.8,69,30.09,10.0,Calm,Calm,-,N/A,,Scattered Clouds,0,2013-08-23 23:58:00
8:53 PM,68.0,53.6,60,30.13,10.0,East,3.5,-,N/A,,Clear,80,2013-08-24 00:53:00
9:15 PM,67.1,52.9,60,30.14,10.0,NE,6.9,-,N/A,,Scattered Clouds,50,2013-08-24 01:15:00
9:35 PM,67.5,51.8,57,30.15,10.0,NNE,8.1,-,N/A,,Scattered Clouds,30,2013-08-24 01:35:00
9:55 PM,67.8,52.0,57,30.16,10.0,NNE,6.9,-,N/A,,Clear,30,2013-08-24 01:55:00
10:15 PM,64.2,52.7,66,30.17,10.0,ENE,4.6,-,N/A,,Clear,60,2013-08-24 02:15:00
10:35 PM,64.6,53.2,67,30.17,10.0,Calm,Calm,-,N/A,,Scattered Clouds,0,2013-08-24 02:35:00
10:55 PM,64.0,52.9,67,30.18,10.0,NE,5.8,-,N/A,,Scattered Clouds,50,2013-08-24 02:55:00
11:15 PM,63.9,53.6,69,30.19,10.0,NE,9.2,-,N/A,,Scattered Clouds,40,2013-08-24 03:15:00
11:35 PM,64.0,53.2,68,30.19,10.0,NE,5.8,-,N/A,,Scattered Clouds,40,2013-08-24 03:35:00
11:55 PM,63.5,53.6,70,30.20,10.0,NE,4.6,-,N/A,,Scattered Clouds,50,2013-08-24 03:55:00